Погода в Соколове

Чехия     50°10′25″N   12°39′09″E
темп.,
°C
ветер,
м/с
пор.,
м/с
влажн.,
%
обл.,
%
осадки,
мм/ч
давл.,
гПа
погр.,
м
24 января, вс
вс2401:00−4в1296100 0.0 99632
04:00−5в1296100 0.0 99521
07:00−3вюв2498100 0.7 994214
10:00−1зюз61193100 1.8 996982
13:00−2зюз61191100 2.1 9961036
16:00−2зюз4897100 0.8 997627
19:00−2зсз61195100 1.4 998728
22:00−3зсз399683 0.6 1000378
25 января, пн
пн2501:00−4з389687 1.1 1001377
04:00−5з239781 0.1 1001109
07:00−6зюз129891 0.1 100269
10:00−4зюз1295100 0.0 1003207
13:00−1з128795 0.1 1003418
16:00−3з2394100 0.0 100599
19:00−6сз129498 0.1 100723
22:00−6з129699 0.0 101031
26 января, вт
вт2601:00−5з379699 0.1 1011285
04:00−6з3109699 0.2 1012407
07:00−4зюз4119699 0.6 1013691
10:00−3з51195100 1.1 1013718
13:000зсз71394100 3.7 10141182
16:00−2з71294100 1.3 10151092
19:00−3з61296100 2.6 1015991
22:00−2з61395100 1.4 10161043
27 января, ср
ср2701:00−3з51295100 2.4 1015892
04:00−3з61192100 0.7 1015855
07:00−3з4109499 0.8 1016718
10:00−3зюз4993100 0.5 1016639
13:00−2зюз5993100 0.9 1015838
16:00−2зюз3796100 0.6 1013587
19:00−3зюз2498100 1.5 1013192
22:00−3зюз1198100 1.0 101222
28 января, чт
чт2801:00−4зсз1297100 1.1 101221
04:00−4з129793 0.0 101274
07:00−3юз129896 0.1 101237
10:00−1ююз139884 0.0 1011177
13:000ююз269992 0.1 1009329
16:00+1ююз14100100 0.4 1006167
19:00+1ююз24100100 2.6 1004113
22:00+3з515100100 2.8 1003626